Location: Unspecified
(0.0000°N, 0.0000°E)
Time: 18:22:26
(UTC+00:00)

Envisat - Pass Details

Date: 22 October 2021
Orbit: 764 x 766 km, 98.2° (Epoch: 23 October)

Event Time Altitude Azimuth Distance (km) Brightness Sun altitude
Rises 04:05:17 0° 30° (NNE) 3,214 6.5 -24.3°
Reaches altitude 10° 04:07:48 10° 40° (NE) 2,291 5.8 -23.7°
Maximum altitude 04:12:15 32° 102° (ESE) 1,296 4.8 -22.6°
Drops below altitude 10° 04:16:43 10° 164° (SSE) 2,301 5.8 -21.5°
Sets 04:19:14 0° 174° (S) 3,229 6.5 -20.9°
